[[{"header":{"parameterUnit":"m.s-1","parameterCategory":1,"la1":30.2991,"la2":30.254,"lo1":-89.0895,"lo2":-89.0444,"dy":0.0017,"dx":0.0017,"nx":28,"ny":28,"refTime":"2023-03-18T21:00:00:Z","depth":0,"parameterNumber":2,"parameterNumberName":"U-component_of_WINDS"},"data":[0,0,0,0,0,0,0,0,0,0,0,0,0,0,0,0,0,0,0,0,0,0,0,0,0,0,0,0,0,0,0,0,0,0,0,0,0,0,0,0,0,0,0,0,0,0,0,0,0,0,0,0,0,0,0,0,0,0,-1.6447,-1.6447,0,-1.6505,-1.6506,-1.6507,-1.647,-1.6469,-1.6467,-1.6465,-1.6526,-1.6529,-1.6532,0,0,0,0,0,0,0,0,0,0,0,0,0,-1.6303,-1.6306,-1.6447,-1.6448,-1.6448,-1.6505,-1.6506,-1.6507,-1.6471,-1.6469,-1.6466,-1.6464,-1.6525,-1.6528,-1.6532,0,0,0,0,0,0,0,0,0,0,0,0,0,-1.6364,-1.6307,-1.6447,-1.6437,-1.6437,-1.6505,-1.6506,-1.6507,-1.6471,-1.6468,-1.6466,-1.6463,-1.6523,-1.6528,-1.6533,-1.6614,0,0,-1.6547,-1.6549,0,0,0,0,0,0,0,0,-1.6361,-1.6369,-1.6438,-1.6438,-1.6438,-1.6478,-1.6477,-1.6543,-1.6472,-1.6458,-1.6465,-1.6462,-1.6512,-1.6517,-1.6534,-1.6617,-1.6619,-1.6548,-1.6551,-1.6553,-1.6554,0,0,0,0,0,0,0,-1.6357,-1.6367,-1.647,-1.6439,-1.6439,-1.643,-1.6435,-1.649,-1.6499,-1.6459,-1.6457,-1.6464,-1.6511,-1.653,-1.6535,-1.662,-1.6548,-1.6552,-1.6555,-1.6557,-1.6772,-1.6774,0,0,0,0,0,0,-1.6353,-1.6363,-1.6468,-1.6472,-1.6392,-1.6434,-1.6441,-1.6468,-1.6498,-1.65,-1.6466,-1.6462,-1.6523,-1.653,-1.6537,-1.6634,-1.6553,-1.6557,-1.656,-1.6769,-1.6772,-1.6775,0,0,0,0,0,0,-1.635,-1.6363,-1.6466,-1.6417,-1.6429,-1.644,-1.647,-1.647,-1.6488,-1.6503,-1.6505,-1.6483,-1.6521,-1.653,-1.6595,-1.6636,-1.6559,-1.6564,-1.6766,-1.677,-1.6774,-1.6829,0,0,0,0,0,0,-1.6346,-1.6362,-1.6393,-1.6418,-1.6432,-1.6523,-1.6472,-1.6473,-1.6497,-1.6492,-1.652,-1.6522,-1.652,-1.6588,-1.66,-1.6641,-1.6568,-1.6762,-1.6767,-1.6772,-1.6824,-1.6835,-1.6844,0,0,0,0,0,-1.6341,-1.6407,-1.6395,-1.6408,-1.6471,-1.6525,-1.6534,-1.653,-1.65,-1.6531,-1.6541,-1.6521,-1.6629,-1.6595,-1.6608,-1.6651,-1.6759,-1.6766,-1.6772,-1.6819,-1.6833,-1.6844,0,0,0,0,0,0,-1.6387,-1.641,-1.6397,-1.6473,-1.6497,-1.6519,-1.6559,-1.6544,-1.6578,-1.6572,-1.6565,-1.6572,-1.6639,-1.6651,-1.6613,-1.6731,-1.669,-1.6699,-1.6721,-1.6734,-1.6744,-1.674,-1.6572,0,0,0,0,0,-1.6406,-1.6448,-1.6465,-1.653,-1.6543,-1.6549,-1.6572,-1.6567,-1.6592,-1.6603,-1.6617,-1.6642,-1.6682,-1.6708,-1.6746,-1.6825,-1.683,-1.6861,-1.6871,-1.6879,-1.6888,-1.693,-1.6944,-1.6796,-1.6796,-1.6796,0,0,-1.6445,-1.6463,-1.649,-1.654,-1.6558,-1.6602,-1.6558,-1.6606,-1.6638,-1.661,-1.6672,-1.6683,-1.6711,-1.6783,-1.6816,-1.6795,-1.693,-1.6887,-1.6894,-1.6898,-1.6938,-1.6952,-1.6965,-1.6801,-1.68,-1.6799,0,0,-1.654,-1.6557,-1.6613,-1.6632,-1.6661,-1.6664,-1.6677,-1.6701,-1.6707,-1.6769,-1.6749,-1.6786,-1.6855,-1.6876,-1.6895,-1.6996,-1.6979,-1.7008,-1.7062,-1.7104,-1.7115,-1.7126,-1.7162,-1.7175,-1.7016,-1.7016,-1.7016,0,-1.6586,-1.6651,-1.6644,-1.6694,-1.6716,-1.6691,-1.6748,-1.6767,-1.6806,-1.6822,-1.6798,-1.6883,-1.69,-1.6977,-1.7001,-1.7018,-1.7033,-1.7006,-1.7114,-1.7124,-1.7134,-1.7168,-1.7182,-1.702,-1.7019,-1.7019,-1.7019,0,-1.6706,-1.6751,-1.6793,-1.6831,-1.6858,-1.6911,-1.6912,-1.6939,-1.6931,-1.6937,-1.6999,-1.7019,-1.7059,-1.7077,-1.7069,-1.7152,-1.7139,-1.7115,-1.7073,-1.7152,-1.7184,-1.7197,-1.7025,-1.7023,-1.7022,-1.7022,0,0,-1.6833,-1.6865,-1.6881,-1.6898,-1.6926,-1.6961,-1.7012,-1.7052,-1.7076,-1.7103,-1.7146,-1.7204,-1.7182,-1.7204,-1.7198,-1.7234,-1.7313,-1.7206,-1.7206,-1.7226,-1.7406,-1.7424,-1.744,-1.7301,-1.7304,-1.7306,-1.7403,0,-1.6929,-1.7019,-1.7014,-1.7098,-1.714,-1.7116,-1.7161,-1.7183,-1.7189,-1.7225,-1.7231,-1.7273,-1.724,-1.7253,-1.7288,-1.7296,-1.7349,-1.7289,-1.7341,-1.7343,-1.7336,-1.7457,-1.7477,-1.7568,-1.7416,-1.7418,-1.742,0,-1.7055,-1.7086,-1.7175,-1.7197,-1.7214,-1.7254,-1.729,-1.7324,-1.7349,-1.735,-1.7374,-1.7362,-1.7413,-1.7369,-1.744,-1.7399,-1.742,-1.7427,-1.743,-1.7436,-1.7387,-1.7467,-1.7597,-1.7612,-1.7439,-1.7438,-1.7436,0,-1.714,-1.7204,-1.7265,-1.728,-1.7307,-1.7336,-1.7348,-1.737,-1.7394,-1.7424,-1.7439,-1.7476,-1.7496,-1.7524,-1.7521,-1.7489,-1.7593,-1.7549,-1.7596,-1.7596,-1.762,-1.7619,-1.7758,-1.7632,-1.7632,-1.7632,-1.7631,0,-1.7249,-1.7305,-1.7303,-1.7341,-1.7402,-1.7395,-1.7455,-1.7464,-1.7484,-1.7523,-1.7504,-1.7541,-1.7535,-1.7572,-1.757,-1.7629,-1.7638,-1.7641,-1.764,-1.7643,-1.7643,-1.7658,-1.7652,-1.7635,-1.7634,-1.7634,-1.7633,0,-1.7355,-1.7356,-1.7422,-1.7441,-1.7447,-1.7492,-1.7508,-1.7544,-1.7547,-1.7597,-1.7608,-1.7614,-1.7656,-1.7656,-1.7704,-1.7703,-1.7775,-1.7766,-1.7767,-1.7766,-1.7813,-1.7809,-1.7967,-1.7987,-1.7848,-1.7849,-1.785,0,-1.7426,-1.7468,-1.7491,-1.7516,-1.753,-1.757,-1.7594,-1.7588,-1.7613,-1.7644,-1.7676,-1.7716,-1.7748,-1.7816,-1.7825,-1.7861,-1.7854,-1.7906,-1.7859,-1.7861,-1.7855,-1.7853,-1.7857,-1.7916,-1.7918,-1.7919,-1.792,0,-1.7551,-1.7549,-1.7584,-1.762,-1.7649,-1.7676,-1.7702,-1.7723,-1.7719,-1.7749,-1.7792,-1.7817,-1.7865,-1.7905,-1.794,-1.7953,-1.7936,-1.7934,-1.7947,-1.7952,-1.7951,-1.7953,-1.7793,-1.7931,-1.793,-1.7929,-1.7929,-1.7928,-1.7642,-1.7678,-1.77,-1.774,-1.7758,-1.7782,-1.7816,-1.7823,-1.7859,-1.7898,-1.7892,-1.794,-1.7962,-1.8007,-1.8022,-1.8059,-1.8041,-1.8059,-1.8064,-1.8069,-1.8075,-1.7944,-1.8065,-1.8065,-1.8065,-1.8064,-1.8064,0,-1.7767,-1.7779,-1.7816,-1.7852,-1.7883,-1.7863,-1.789,-1.7917,-1.796,-1.7982,-1.8013,-1.8062,-1.81,-1.8111,-1.8148,-1.8176,-1.8169,-1.8186,-1.8184,-1.8187,-1.8089,-1.8074,-1.819,-1.819,-1.819,-1.819,-1.819,-1.819,-1.7835,-1.7895,-1.7896,-1.7964,-1.7976,-1.8023,-1.804,-1.8062,-1.8079,-1.8135,-1.8166,-1.8173,-1.819,-1.8228,-1.8262,-1.8264,-1.8279,-1.8299,-1.8298,-1.8207,-1.8194,-1.8182,-1.8168,-1.8302,-1.8302,-1.8393,-1.8394,-1.8395]},{"header":{"parameterUnit":"m.s-1","parameterCategory":1,"la1":30.2991,"la2":30.254,"lo1":-89.0895,"lo2":-89.0444,"dy":0.0017,"dx":0.0017,"nx":28,"ny":28,"refTime":"2023-03-18T21:00:00:Z","depth":0,"parameterNumber":3,"parameterNumberName":"V-component_of_WINDS"},"data":[0,0,0,0,0,0,0,0,0,0,0,0,0,0,0,0,0,0,0,0,0,0,0,0,0,0,0,0,0,0,0,0,0,0,0,0,0,0,0,0,0,0,0,0,0,0,0,0,0,0,0,0,0,0,0,0,0,0,-8.2381,-8.2382,0,-8.2521,-8.2522,-8.2524,-8.2433,-8.2428,-8.2424,-8.242,-8.2557,-8.2565,-8.2572,0,0,0,0,0,0,0,0,0,0,0,0,0,-8.2028,-8.2035,-8.2381,-8.2382,-8.2384,-8.2521,-8.2522,-8.2524,-8.2433,-8.2428,-8.2423,-8.2418,-8.2555,-8.2564,-8.2573,0,0,0,0,0,0,0,0,0,0,0,0,0,-8.2176,-8.2037,-8.238,-8.2355,-8.2354,-8.252,-8.2523,-8.2525,-8.2434,-8.2428,-8.2422,-8.2416,-8.2552,-8.2563,-8.2574,-8.277,0,0,-8.2609,-8.2614,0,0,0,0,0,0,0,0,-8.2167,-8.2189,-8.2357,-8.2357,-8.2357,-8.2453,-8.2448,-8.2607,-8.2436,-8.2404,-8.242,-8.2413,-8.2527,-8.254,-8.258,-8.2777,-8.2783,-8.261,-8.2617,-8.2622,-8.2625,0,0,0,0,0,0,0,-8.2157,-8.2182,-8.2436,-8.236,-8.2359,-8.2335,-8.2349,-8.2478,-8.2499,-8.2406,-8.24,-8.2418,-8.2526,-8.257,-8.2583,-8.2785,-8.261,-8.262,-8.2627,-8.2631,-8.3149,-8.3155,0,0,0,0,0,0,-8.215,-8.2174,-8.2431,-8.244,-8.2245,-8.2347,-8.2362,-8.2428,-8.2497,-8.2502,-8.2423,-8.2413,-8.2553,-8.257,-8.2587,-8.2822,-8.2622,-8.2632,-8.2639,-8.3142,-8.315,-8.3158,0,0,0,0,0,0,-8.2143,-8.2174,-8.2426,-8.2306,-8.2336,-8.2359,-8.2434,-8.2434,-8.2478,-8.2511,-8.2513,-8.2465,-8.2549,-8.2571,-8.2726,-8.2825,-8.2637,-8.2648,-8.3134,-8.3144,-8.3154,-8.3292,0,0,0,0,0,0,-8.2133,-8.2172,-8.2248,-8.2308,-8.2343,-8.2565,-8.244,-8.2442,-8.2499,-8.2487,-8.255,-8.2554,-8.2546,-8.271,-8.2737,-8.2837,-8.2656,-8.3125,-8.3138,-8.3151,-8.3279,-8.3306,-8.3329,0,0,0,0,0,-8.2121,-8.228,-8.2253,-8.2284,-8.2439,-8.257,-8.259,-8.2579,-8.2507,-8.2583,-8.2604,-8.2552,-8.281,-8.2726,-8.2757,-8.2862,-8.3118,-8.3134,-8.315,-8.3268,-8.3301,-8.3329,0,0,0,0,0,0,-8.2229,-8.2287,-8.2258,-8.2441,-8.2502,-8.2555,-8.265,-8.2614,-8.2695,-8.268,-8.2661,-8.2676,-8.2838,-8.2865,-8.277,-8.3055,-8.2952,-8.2975,-8.3032,-8.3064,-8.3088,-8.3079,-8.2666,0,0,0,0,0,-8.2275,-8.2379,-8.2423,-8.2581,-8.2613,-8.2627,-8.2684,-8.267,-8.2731,-8.2756,-8.2787,-8.2847,-8.2941,-8.3003,-8.3092,-8.3282,-8.3294,-8.3369,-8.3394,-8.3415,-8.3435,-8.3537,-8.3571,-8.3209,-8.3209,-8.3209,0,0,-8.2369,-8.2414,-8.248,-8.2604,-8.2649,-8.2756,-8.2649,-8.2766,-8.2844,-8.2772,-8.2922,-8.2947,-8.3012,-8.3185,-8.3263,-8.3213,-8.3537,-8.3435,-8.3451,-8.346,-8.3557,-8.3591,-8.3621,-8.322,-8.3218,-8.3216,0,0,-8.2596,-8.2641,-8.2777,-8.2826,-8.2896,-8.2904,-8.2937,-8.2996,-8.3011,-8.3161,-8.311,-8.3201,-8.3364,-8.3412,-8.3458,-8.3704,-8.3659,-8.3733,-8.3865,-8.3965,-8.3994,-8.4019,-8.4107,-8.4138,-8.3752,-8.3753,-8.3753,0,-8.2704,-8.2865,-8.2851,-8.2974,-8.3029,-8.2971,-8.3109,-8.3155,-8.325,-8.3289,-8.3231,-8.3435,-8.3474,-8.3659,-8.3719,-8.3758,-8.3794,-8.3726,-8.3991,-8.4016,-8.4039,-8.4123,-8.4156,-8.3761,-8.376,-8.3759,-8.3759,0,-8.2994,-8.3106,-8.3208,-8.3304,-8.3371,-8.3499,-8.3504,-8.3573,-8.3553,-8.3567,-8.3719,-8.3765,-8.3862,-8.3904,-8.3885,-8.4086,-8.4052,-8.3994,-8.389,-8.4083,-8.4161,-8.4193,-8.3774,-8.3771,-8.3768,-8.3766,0,0,-8.3293,-8.3382,-8.3419,-8.3462,-8.3536,-8.3622,-8.3747,-8.3844,-8.3903,-8.397,-8.4075,-8.4214,-8.416,-8.4212,-8.4198,-8.4286,-8.4478,-8.4216,-8.4217,-8.4264,-8.4702,-8.4747,-8.4784,-8.4449,-8.4455,-8.446,-8.4697,0,-8.3525,-8.3747,-8.3739,-8.3945,-8.4048,-8.3995,-8.4104,-8.416,-8.4176,-8.4264,-8.428,-8.438,-8.4301,-8.4332,-8.4417,-8.4437,-8.4566,-8.442,-8.4544,-8.4549,-8.4531,-8.4825,-8.4872,-8.5094,-8.4727,-8.4732,-8.4736,0,-8.3826,-8.3906,-8.4124,-8.4183,-8.4225,-8.4324,-8.4413,-8.4498,-8.456,-8.4565,-8.4624,-8.4596,-8.4721,-8.4614,-8.4786,-8.4686,-8.4736,-8.4754,-8.4762,-8.4774,-8.4655,-8.4845,-8.5164,-8.5198,-8.4784,-8.478,-8.4777,0,-8.4023,-8.4185,-8.4336,-8.4375,-8.4447,-8.4518,-8.4551,-8.4607,-8.4666,-8.4742,-8.478,-8.4869,-8.4918,-8.4986,-8.4982,-8.4905,-8.5156,-8.5049,-8.5163,-8.5163,-8.5219,-8.5215,-8.5551,-8.525,-8.525,-8.5249,-8.5249,0,-8.4283,-8.4418,-8.4426,-8.4519,-8.4669,-8.4657,-8.4804,-8.483,-8.488,-8.4976,-8.4933,-8.5023,-8.5012,-8.5102,-8.5099,-8.5242,-8.5264,-8.527,-8.5268,-8.5275,-8.5274,-8.5308,-8.5293,-8.5258,-8.5256,-8.5254,-8.5253,0,-8.4529,-8.454,-8.4702,-8.4758,-8.4775,-8.4883,-8.4929,-8.5017,-8.5029,-8.5151,-8.5178,-8.5197,-8.5301,-8.5304,-8.5422,-8.542,-8.5594,-8.5574,-8.5574,-8.5571,-8.5685,-8.5674,-8.6054,-8.6104,-8.577,-8.5773,-8.5776,0,-8.4695,-8.4798,-8.4866,-8.4929,-8.4967,-8.5067,-8.5128,-8.5119,-8.5184,-8.5262,-8.534,-8.544,-8.552,-8.5688,-8.5711,-8.5801,-8.5783,-8.591,-8.5796,-8.58,-8.5786,-8.578,-8.579,-8.5933,-8.5936,-8.5939,-8.5942,0,-8.4988,-8.4989,-8.5079,-8.5172,-8.5246,-8.5318,-8.5384,-8.5437,-8.5436,-8.551,-8.5617,-8.568,-8.5802,-8.5901,-8.5989,-8.602,-8.5981,-8.5978,-8.6009,-8.6017,-8.6014,-8.6018,-8.5636,-8.5969,-8.5966,-8.5964,-8.5963,-8.5962,-8.52,-8.5289,-8.5352,-8.5453,-8.5503,-8.5566,-8.5652,-8.5676,-8.5766,-8.5866,-8.5855,-8.5974,-8.6032,-8.6146,-8.6184,-8.6276,-8.6232,-8.6277,-8.6288,-8.63,-8.6313,-8.5999,-8.6291,-8.6291,-8.629,-8.6289,-8.6289,0,-8.5491,-8.5529,-8.5623,-8.5719,-8.5799,-8.5757,-8.5828,-8.5897,-8.6004,-8.6062,-8.6143,-8.6265,-8.6362,-8.6393,-8.6486,-8.6553,-8.6538,-8.6578,-8.6573,-8.6581,-8.6347,-8.6311,-8.6589,-8.6589,-8.6589,-8.6589,-8.6589,-8.6589,-8.5653,-8.5802,-8.581,-8.5983,-8.6019,-8.6137,-8.6182,-8.6239,-8.6286,-8.6426,-8.6507,-8.6527,-8.6575,-8.6671,-8.6757,-8.6763,-8.68,-8.6848,-8.6847,-8.6627,-8.6597,-8.6569,-8.6535,-8.6856,-8.6856,-8.7073,-8.7075,-8.7077]}]]